| time (UTC) | temp F | wind direction | speed MPH | gust MPH | rain 1hr in | rain 24hr in | rain mn in | humidity % | barometer mb |
| 20260906033004 | 58 | 276 | 1.0 | 2.0 | 0.00 | 0.06 | 0.03 | 96 | 1007.5 |
| 20260906031505 | 59 | 317 | 1.0 | 1.0 | 0.00 | 0.06 | 0.03 | 97 | 1007.4 |
| 20260906031005 | 59 | 317 | 1.0 | 1.0 | 0.00 | 0.06 | 0.03 | 97 | 1007.4 |
| 20260906030004 | 59 | 309 | 1.0 | 5.0 | 0.00 | 0.06 | 0.03 | 98 | 1007.3 |
| 20260906024504 | 59 | 357 | 1.0 | 1.0 | 0.00 | 0.06 | 0.03 | 100 | 1007.4 |
| 20260906024004 | 59 | 338 | 1.0 | 2.0 | 0.00 | 0.06 | 0.03 | 100 | 1007.3 |
| 20260906023505 | 59 | 345 | 1.0 | 2.0 | 0.00 | 0.06 | 0.03 | 100 | 1007.3 |
| 20260906021504 | 60 | 18 | 1.0 | 1.0 | 0.00 | 0.06 | 0.03 | 100 | 1007.2 |
| 20260906021005 | 60 | 345 | 1.0 | 2.0 | 0.00 | 0.06 | 0.03 | 99 | 1007.2 |
| 20260906020504 | 60 | 309 | 1.0 | 2.0 | 0.00 | 0.06 | 0.03 | 99 | 1007.2 |
| 20260906020005 | 60 | 5 | 1.0 | 1.0 | 0.00 | 0.06 | 0.03 | 99 | 1007.1 |
| 20260906014504 | 60 | 310 | 1.0 | 1.0 | 0.00 | 0.06 | 0.03 | 99 | 1007.2 |
| 20260906013504 | 61 | 315 | 1.0 | 2.0 | 0.00 | 0.06 | 0.03 | 99 | 1007.2 |
| 20260906011504 | 62 | 331 | 1.0 | 2.0 | 0.00 | 0.06 | 0.03 | 99 | 1007.3 |
| 20260906011004 | 62 | 16 | 1.0 | 2.0 | 0.00 | 0.06 | 0.03 | 99 | 1007.2 |
| 20260906010004 | 62 | 344 | 1.0 | 2.0 | 0.00 | 0.06 | 0.03 | 98 | 1007.2 |
| 20260906004504 | 62 | 19 | 1.0 | 2.0 | 0.00 | 0.06 | 0.03 | 98 | 1007.2 |
| 20260906004004 | 62 | 299 | 1.0 | 2.0 | 0.00 | 0.06 | 0.03 | 98 | 1007.1 |
| 20260906003503 | 62 | 19 | 1.0 | 2.0 | 0.00 | 0.06 | 0.03 | 98 | 1006.9 |
| 20260906003004 | 62 | 61 | 1.0 | 2.0 | 0.00 | 0.06 | 0.03 | 98 | 1006.9 |
| 20260906001504 | 62 | 35 | 1.0 | 1.0 | 0.00 | 0.06 | 0.03 | 98 | 1006.8 |
| 20260906001004 | 62 | 318 | 1.0 | 2.0 | 0.00 | 0.06 | 0.03 | 98 | 1006.8 |
| 20260906000503 | 62 | 314 | 1.0 | 2.0 | 0.00 | 0.06 | 0.03 | 98 | 1006.8 |
| 20260906000004 | 62 | 44 | 1.0 | 2.0 | 0.00 | 0.06 | 0.03 | 98 | 1006.8 |
| 20260905234504 | 62 | 300 | 1.0 | 2.0 | 0.00 | 0.06 | 0.03 | 97 | 1006.6 |
| 20260905234013 | 62 | 309 | 1.0 | 2.0 | 0.00 | 0.06 | 0.03 | 97 | 1006.6 |
| 20260905233512 | 63 | 13 | 1.0 | 2.0 | 0.00 | 0.06 | 0.03 | 96 | 1006.5 |
| 20260905233012 | 63 | 0 | 1.0 | 2.0 | 0.00 | 0.06 | 0.03 | 96 | 1006.5 |
| 20260905231012 | 63 | 8 | 0.0 | 1.0 | 0.00 | 0.06 | 0.03 | 94 | 1006.4 |
| 20260905230512 | 64 | 345 | 1.0 | 1.0 | 0.00 | 0.06 | 0.03 | 94 | 1006.3 |
| 20260905230012 | 64 | 334 | 1.0 | 1.0 | 0.00 | 0.06 | 0.03 | 93 | 1006.3 |
| 20260905224512 | 64 | 8 | 1.0 | 1.0 | 0.00 | 0.06 | 0.03 | 94 | 1006.3 |
| 20260905224012 | 64 | 324 | 1.0 | 1.0 | 0.00 | 0.06 | 0.03 | 93 | 1006.4 |
| 20260905223511 | 64 | 313 | 1.0 | 1.0 | 0.00 | 0.06 | 0.03 | 92 | 1006.4 |
| 20260905221012 | 64 | 293 | 1.0 | 2.0 | 0.00 | 0.06 | 0.03 | 90 | 1006.1 |
| 20260905220511 | 64 | 348 | 1.0 | 2.0 | 0.00 | 0.06 | 0.03 | 90 | 1006.1 |
| 20260905220012 | 64 | 308 | 1.0 | 2.0 | 0.00 | 0.06 | 0.03 | 90 | 1006.0 |
| 20260905214511 | 64 | 13 | 1.0 | 2.0 | 0.00 | 0.06 | 0.03 | 90 | 1005.8 |
| 20260905214011 | 64 | 45 | 1.0 | 2.0 | 0.00 | 0.06 | 0.03 | 90 | 1005.8 |
| 20260905213012 | 64 | 77 | 1.0 | 3.0 | 0.00 | 0.06 | 0.03 | 91 | 1005.7 |
| 20260905211512 | 65 | 27 | 1.0 | 2.0 | 0.00 | 0.06 | 0.03 | 90 | 1005.7 |
| 20260905211011 | 65 | 14 | 1.0 | 2.0 | 0.00 | 0.06 | 0.03 | 90 | 1005.6 |
| 20260905210512 | 65 | 309 | 1.0 | 3.0 | 0.00 | 0.06 | 0.03 | 90 | 1005.6 |
| 20260905210011 | 66 | 293 | 2.0 | 3.0 | 0.00 | 0.07 | 0.03 | 89 | 1005.5 |
| 20260905204512 | 67 | 64 | 1.0 | 2.0 | 0.00 | 0.07 | 0.03 | 87 | 1005.4 |
| 20260905204011 | 67 | 38 | 1.0 | 2.0 | 0.00 | 0.07 | 0.03 | 87 | 1005.4 |
| 20260905203512 | 67 | 292 | 1.0 | 2.0 | 0.00 | 0.07 | 0.03 | 86 | 1005.3 |
| 20260905201011 | 68 | 314 | 2.0 | 3.0 | 0.00 | 0.07 | 0.03 | 87 | 1005.0 |
| 20260905200011 | 68 | 287 | 2.0 | 5.0 | 0.00 | 0.07 | 0.03 | 84 | 1004.9 |
| 20260905194512 | 69 | 301 | 1.0 | 3.0 | 0.00 | 0.07 | 0.03 | 85 | 1004.9 |
| 20260905194011 | 68 | 343 | 1.0 | 3.0 | 0.00 | 0.07 | 0.03 | 85 | 1005.0 |
| 20260905193511 | 68 | 315 | 1.0 | 2.0 | 0.00 | 0.07 | 0.03 | 87 | 1005.0 |
| 20260905193011 | 68 | 59 | 1.0 | 2.0 | 0.00 | 0.07 | 0.03 | 87 | 1005.1 |
| 20260905191512 | 68 | 27 | 1.0 | 2.0 | 0.01 | 0.07 | 0.03 | 87 | 1005.0 |
| 20260905190511 | 67 | 302 | 1.0 | 3.0 | 0.01 | 0.07 | 0.03 | 88 | 1005.1 |
| 20260905184511 | 66 | 292 | 1.0 | 1.0 | 0.01 | 0.07 | 0.03 | 91 | 1005.1 |
| 20260905184011 | 66 | 329 | 1.0 | 1.0 | 0.01 | 0.07 | 0.03 | 92 | 1005.1 |
| 20260905183011 | 65 | 51 | 1.0 | 2.0 | 0.01 | 0.07 | 0.03 | 94 | 1005.1 |
| 20260905181511 | 65 | 20 | 1.0 | 1.0 | 0.02 | 0.15 | 0.02 | 93 | 1005.1 |
| 20260905181010 | 65 | 26 | 1.0 | 1.0 | 0.02 | 0.15 | 0.02 | 94 | 1005.1 |
| 20260905180510 | 65 | 321 | 1.0 | 2.0 | 0.02 | 0.15 | 0.02 | 94 | 1005.1 |
| 20260905180011 | 64 | 356 | 1.0 | 2.0 | 0.02 | 0.15 | 0.02 | 95 | 1005.1 |
| 20260905174510 | 63 | 43 | 1.0 | 2.0 | 0.02 | 0.16 | 0.02 | 94 | 1005.1 |
| 20260905174011 | 64 | 82 | 1.0 | 2.0 | 0.05 | 0.18 | 0.05 | 93 | 1005.2 |
| 20260905173511 | 64 | 318 | 1.0 | 3.0 | 0.05 | 0.18 | 0.05 | 94 | 1005.2 |
| 20260905171511 | 67 | 90 | 2.0 | 3.0 | 0.00 | 0.13 | 0.00 | 82 | 1005.0 |
| 20260905171010 | 68 | 91 | 2.0 | 3.0 | 0.00 | 0.13 | 0.00 | 81 | 1005.0 |
| 20260905170511 | 68 | 32 | 1.0 | 2.0 | 0.00 | 0.13 | 0.00 | 81 | 1004.9 |
| 20260905164510 | 69 | 87 | 1.0 | 2.0 | 0.00 | 0.13 | 0.00 | 76 | 1004.7 |
| 20260905164010 | 69 | 86 | 1.0 | 2.0 | 0.00 | 0.13 | 0.00 | 77 | 1004.6 |
| 20260905163510 | 69 | 89 | 1.0 | 2.0 | 0.00 | 0.13 | 0.00 | 77 | 1004.7 |
| 20260905163011 | 69 | 273 | 1.0 | 2.0 | 0.00 | 0.13 | 0.00 | 78 | 1004.8 |
| 20260905161510 | 66 | 306 | 1.0 | 1.0 | 0.00 | 0.13 | 0.00 | 82 | 1005.0 |
| 20260905161011 | 66 | 333 | 1.0 | 1.0 | 0.00 | 0.13 | 0.00 | 84 | 1005.1 |
| 20260905160510 | 66 | 70 | 1.0 | 1.0 | 0.00 | 0.13 | 0.00 | 84 | 1005.2 |
| 20260905160010 | 66 | 301 | 1.0 | 1.0 | 0.00 | 0.13 | 0.00 | 84 | 1005.2 |
| 20260905154510 | 66 | 95 | 1.0 | 2.0 | 0.00 | 0.13 | 0.00 | 84 | 1005.1 |
| 20260905153010 | 67 | 93 | 1.0 | 2.0 | 0.00 | 0.13 | 0.00 | 81 | 1005.1 |
| 20260905151510 | 66 | 87 | 1.0 | 2.0 | 0.00 | 0.13 | 0.00 | 80 | 1005.1 |
| 20260905150510 | 66 | 52 | 1.0 | 2.0 | 0.00 | 0.13 | 0.00 | 81 | 1005.0 |
| 20260905150010 | 66 | 145 | 1.0 | 3.0 | 0.00 | 0.13 | 0.00 | 84 | 1005.0 |
| 20260905144509 | 66 | 85 | 1.0 | 2.0 | 0.00 | 0.13 | 0.00 | 83 | 1005.0 |
| 20260905144010 | 66 | 84 | 1.0 | 2.0 | 0.00 | 0.13 | 0.00 | 83 | 1004.9 |
| 20260905143510 | 66 | 85 | 2.0 | 3.0 | 0.00 | 0.13 | 0.00 | 82 | 1004.9 |
| 20260905141510 | 67 | 82 | 2.0 | 2.0 | 0.00 | 0.13 | 0.00 | 82 | 1004.5 |
| 20260905141010 | 67 | 87 | 2.0 | 2.0 | 0.00 | 0.13 | 0.00 | 81 | 1004.5 |
| 20260905140510 | 67 | 75 | 1.0 | 2.0 | 0.00 | 0.13 | 0.00 | 82 | 1004.4 |
| 20260905140009 | 66 | 74 | 1.0 | 2.0 | 0.00 | 0.13 | 0.00 | 82 | 1004.5 |
| 20260905134509 | 66 | 100 | 1.0 | 1.0 | 0.00 | 0.13 | 0.00 | 85 | 1004.3 |
| 20260905134009 | 65 | 40 | 1.0 | 3.0 | 0.00 | 0.13 | 0.00 | 85 | 1004.3 |
| 20260905133509 | 65 | 71 | 1.0 | 1.0 | 0.00 | 0.13 | 0.00 | 87 | 1004.2 |
| 20260905133010 | 65 | 32 | 0.0 | 2.0 | 0.00 | 0.13 | 0.00 | 87 | 1004.1 |
| 20260905131509 | 65 | 71 | 1.0 | 1.0 | 0.00 | 0.13 | 0.00 | 87 | 1004.1 |
| 20260905131010 | 65 | 95 | 1.0 | 1.0 | 0.00 | 0.13 | 0.00 | 88 | 1004.1 |
| 20260905130509 | 64 | 17 | 1.0 | 1.0 | 0.00 | 0.13 | 0.00 | 88 | 1004.0 |
| 20260905130009 | 64 | 66 | 1.0 | 2.0 | 0.00 | 0.13 | 0.00 | 89 | 1004.0 |
| 20260905124510 | 64 | 80 | 1.0 | 2.0 | 0.00 | 0.13 | 0.00 | 90 | 1003.9 |
| 20260905124009 | 63 | 97 | 1.0 | 2.0 | 0.00 | 0.13 | 0.00 | 90 | 1003.9 |
| 20260905123009 | 62 | 102 | 1.0 | 2.0 | 0.00 | 0.13 | 0.00 | 93 | 1003.8 |
| 20260905121509 | 61 | 64 | 1.0 | 1.0 | 0.00 | 0.13 | 0.00 | 98 | 1003.7 |
| 20260905121010 | 61 | 81 | 1.0 | 1.0 | 0.00 | 0.13 | 0.00 | 99 | 1003.7 |
| 20260905120509 | 60 | 60 | 1.0 | 1.0 | 0.00 | 0.13 | 0.00 | 100 | 1003.7 |
| 20260905114509 | 58 | 154 | 1.0 | 2.0 | 0.00 | 0.13 | 0.00 | 100 | 1003.7 |
| 20260905113509 | 57 | 59 | 1.0 | 1.0 | 0.00 | 0.13 | 0.00 | 100 | 1003.7 |
| 20260905113009 | 57 | 4 | 1.0 | 2.0 | 0.00 | 0.13 | 0.00 | 100 | 1003.7 |
| 20260905111509 | 56 | 96 | 1.0 | 3.0 | 0.00 | 0.13 | 0.00 | 100 | 1003.6 |
| 20260905111009 | 56 | 18 | 2.0 | 5.0 | 0.00 | 0.13 | 0.00 | 100 | 1003.5 |
| 20260905110509 | 56 | 131 | 1.0 | 6.0 | 0.00 | 0.13 | 0.00 | 100 | 1003.5 |
| 20260905110008 | 56 | 31 | 2.0 | 3.0 | 0.00 | 0.13 | 0.00 | 100 | 1003.5 |
| 20260905104509 | 57 | 87 | 1.0 | 2.0 | 0.00 | 0.13 | 0.00 | 100 | 1003.3 |
| 20260905104009 | 57 | 48 | 2.0 | 5.0 | 0.00 | 0.13 | 0.00 | 100 | 1003.2 |
| 20260905103509 | 57 | 219 | 1.0 | 3.0 | 0.00 | 0.13 | 0.00 | 100 | 1003.2 |
| 20260905101509 | 57 | 44 | 2.0 | 5.0 | 0.00 | 0.13 | 0.00 | 100 | 1003.2 |
| 20260905101008 | 57 | 352 | 1.0 | 5.0 | 0.00 | 0.13 | 0.00 | 100 | 1003.2 |
| 20260905100509 | 57 | 358 | 1.0 | 1.0 | 0.00 | 0.13 | 0.00 | 100 | 1003.1 |
| 20260905100009 | 57 | 44 | 1.0 | 1.0 | 0.00 | 0.13 | 0.00 | 100 | 1003.1 |
| 20260905094508 | 57 | 337 | 1.0 | 3.0 | 0.00 | 0.13 | 0.00 | 100 | 1002.8 |
| 20260905094008 | 57 | 59 | 1.0 | 1.0 | 0.00 | 0.13 | 0.00 | 100 | 1002.7 |
| 20260905093509 | 57 | 111 | 1.0 | 2.0 | 0.00 | 0.13 | 0.00 | 100 | 1002.7 |
| 20260905093009 | 57 | 0 | 0.0 | 1.0 | 0.00 | 0.13 | 0.00 | 99 | 1002.6 |
| 20260905091508 | 57 | 78 | 1.0 | 2.0 | 0.00 | 0.13 | 0.00 | 99 | 1002.5 |
| 20260905091008 | 57 | 326 | 1.0 | 1.0 | 0.00 | 0.13 | 0.00 | 99 | 1002.5 |
| 20260905090508 | 57 | 328 | 1.0 | 1.0 | 0.00 | 0.13 | 0.00 | 99 | 1002.5 |
| 20260905090009 | 58 | 41 | 1.0 | 2.0 | 0.00 | 0.13 | 0.00 | 99 | 1002.5 |
| 20260905084508 | 58 | 339 | 1.0 | 2.0 | 0.00 | 0.13 | 0.00 | 98 | 1002.4 |
| 20260905084008 | 58 | 294 | 1.0 | 2.0 | 0.00 | 0.13 | 0.00 | 98 | 1002.4 |
| 20260905083508 | 58 | 18 | 1.0 | 2.0 | 0.00 | 0.13 | 0.00 | 98 | 1002.4 |
| 20260905083008 | 58 | 74 | 1.0 | 2.0 | 0.00 | 0.13 | 0.00 | 98 | 1002.4 |
| 20260905081508 | 58 | 135 | 1.0 | 2.0 | 0.00 | 0.13 | 0.00 | 98 | 1002.3 |
| 20260905081008 | 58 | 275 | 1.0 | 2.0 | 0.00 | 0.13 | 0.00 | 98 | 1002.3 |
| 20260905080508 | 58 | 328 | 1.0 | 2.0 | 0.00 | 0.13 | 0.00 | 98 | 1002.4 |
| 20260905080008 | 58 | 271 | 1.0 | 2.0 | 0.00 | 0.13 | 0.00 | 98 | 1002.4 |
| 20260905074508 | 59 | 309 | 1.0 | 2.0 | 0.00 | 0.13 | 0.00 | 97 | 1002.3 |
| 20260905074008 | 59 | 293 | 1.0 | 2.0 | 0.00 | 0.13 | 0.00 | 98 | 1002.3 |
| 20260905073508 | 59 | 128 | 1.0 | 1.0 | 0.00 | 0.13 | 0.00 | 97 | 1002.4 |
| 20260905073008 | 59 | 101 | 1.0 | 2.0 | 0.00 | 0.13 | 0.00 | 97 | 1002.3 |
| 20260905071508 | 59 | 242 | 2.0 | 2.0 | 0.00 | 0.13 | 0.00 | 97 | 1002.2 |
| 20260905071008 | 59 | 297 | 2.0 | 2.0 | 0.00 | 0.13 | 0.00 | 97 | 1002.3 |
| 20260905070508 | 59 | 37 | 1.0 | 1.0 | 0.00 | 0.13 | 0.00 | 97 | 1002.4 |
| 20260905070007 | 59 | 45 | 1.0 | 2.0 | 0.00 | 0.13 | 0.00 | 98 | 1002.5 |
| 20260905064508 | 59 | 307 | 1.0 | 2.0 | 0.00 | 0.13 | 0.00 | 98 | 1002.5 |
| 20260905064008 | 59 | 274 | 1.0 | 2.0 | 0.00 | 0.13 | 0.00 | 98 | 1002.5 |
| 20260905063008 | 59 | 61 | 1.0 | 2.0 | 0.00 | 0.13 | 0.00 | 98 | 1002.6 |
| 20260905061507 | 59 | 293 | 1.0 | 2.0 | 0.00 | 0.13 | 0.00 | 98 | 1002.5 |
| 20260905061007 | 59 | 333 | 1.0 | 2.0 | 0.00 | 0.13 | 0.00 | 97 | 1002.6 |
| 20260905060508 | 59 | 279 | 1.0 | 2.0 | 0.00 | 0.13 | 0.00 | 97 | 1002.6 |
| 20260905060008 | 59 | 68 | 1.0 | 2.0 | 0.00 | 0.13 | 0.00 | 97 | 1002.6 |
| 20260905054507 | 59 | 27 | 1.0 | 2.0 | 0.00 | 0.13 | 0.00 | 97 | 1002.5 |
| 20260905054007 | 59 | 277 | 1.0 | 1.0 | 0.00 | 0.13 | 0.00 | 96 | 1002.6 |
| 20260905053508 | 59 | 82 | 1.0 | 1.0 | 0.00 | 0.13 | 0.00 | 96 | 1002.6 |
| 20260905053008 | 60 | 182 | 1.0 | 1.0 | 0.00 | 0.13 | 0.00 | 96 | 1002.6 |
| 20260905051508 | 60 | 289 | 1.0 | 2.0 | 0.00 | 0.13 | 0.00 | 96 | 1002.7 |
| 20260905051007 | 60 | 310 | 1.0 | 1.0 | 0.00 | 0.13 | 0.00 | 96 | 1002.7 |
| 20260905050007 | 60 | 253 | 1.0 | 2.0 | 0.00 | 0.13 | 0.00 | 95 | 1002.8 |
| 20260905044007 | 61 | 274 | 1.0 | 2.0 | 0.00 | 0.13 | 0.00 | 93 | 1002.7 |
| 20260905043507 | 62 | 325 | 1.0 | 1.0 | 0.00 | 0.13 | 0.00 | 93 | 1002.7 |
| 20260905043007 | 62 | 350 | 1.0 | 1.0 | 0.00 | 0.13 | 0.00 | 93 | 1002.7 |
| 20260905041007 | 62 | 99 | 1.0 | 1.0 | 0.00 | 0.13 | 0.00 | 93 | 1002.8 |
| 20260905040507 | 62 | 304 | 2.0 | 2.0 | 0.00 | 0.13 | 0.00 | 93 | 1002.8 |
| 20260905040007 | 62 | 287 | 1.0 | 2.0 | 0.00 | 0.13 | 0.00 | 92 | 1002.9 |
| 20260905034507 | 63 | 186 | 1.0 | 2.0 | 0.00 | 0.13 | 0.09 | 89 | 1002.9 |
| 20260905034007 | 63 | 39 | 1.0 | 1.0 | 0.00 | 0.13 | 0.09 | 89 | 1002.8 |
| 20260905033507 | 63 | 350 | 1.0 | 1.0 | 0.00 | 0.13 | 0.09 | 89 | 1002.8 |